Location: Barcelona
(41.3830°N, 2.1830°E)
Time: 18:29:45
(UTC+01:00)

CUTE 1.7 + AOD 2 - Visible Passes

Search period start: 20 March 2019 00:00
Search period end: 30 March 2019 00:00
Orbit: 594 x 612 km, 97.5° (Epoch: 19 March)

Date Brightness Start Highest point End Pass type
(mag) Time Alt. Az. Time Alt. Az. Time Alt. Az.
20 Mar ? 06:07:43 10° NE 06:11:12 24° E 06:14:39 10° SSE visible
21 Mar ? 06:19:33 10° NNE 06:23:24 33° E 06:27:12 10° SSE visible
25 Mar ? 05:35:26 10° E 05:35:41 10° E 05:35:57 10° E visible
26 Mar ? 05:45:41 10° ENE 05:47:57 14° E 05:50:11 10° ESE visible
27 Mar ? 05:57:08 10° NE 06:00:10 19° E 06:03:12 10° SE visible
28 Mar ? 06:08:50 10° NE 06:12:22 26° E 06:15:53 10° SSE visible
